This is the latest recevied weather packets stored in our database for station/object N0HOT. If no packets are shown the sender has not sent any weather packets the latest 10 day(s).
| Time | Temp. | Humidity | Pressure | Rain* | Wind** | Luminosity | Snow |
|---|---|---|---|---|---|---|---|
| 1777741124 | 16.11° C | 23% | 1018.1 hPa | 0 mm | - | 986 W/m² | - |
| 1777740822 | 16.11° C | 22% | 1018.1 hPa | 0 mm | - | 948 W/m² | - |
| 1777740518 | 16.11° C | 24% | 1018.1 hPa | 0 mm | - | 223 W/m² | - |
| 1777740216 | 15.56° C | 22% | 1018.1 hPa | 0 mm | - | 1123 W/m² | - |
| 1777739912 | 15.56° C | 24% | 1018.1 hPa | 0 mm | - | 311 W/m² | - |
| 1777739608 | 15.56° C | 23% | 1018.1 hPa | 0 mm | - | 986 W/m² | - |
| 1777739306 | 15.56° C | 24% | 1018.5 hPa | 0 mm | - | 891 W/m² | - |
| 1777739002 | 15° C | 24% | 1018.5 hPa | 0 mm | - | 157 W/m² | - |
| 1777738699 | 15° C | 25% | 1018.5 hPa | 0 mm | - | 940 W/m² | - |
| 1777738390 | 15° C | 26% | 1018.5 hPa | 0 mm | - | 335 W/m² | - |
| 1777738088 | 15° C | 27% | 1018.8 hPa | 0 mm | - | 763 W/m² | - |
| 1777737787 | 15.56° C | 24% | 1018.5 hPa | 0 mm | - | 188 W/m² | - |
| 1777737485 | 15.56° C | 24% | 1018.5 hPa | 0 mm | - | 934 W/m² | - |
| 1777737183 | 15.56° C | 28% | 1018.8 hPa | 0 mm | - | 164 W/m² | - |
| 1777736877 | 15.56° C | 27% | 1018.8 hPa | 0 mm | - | 167 W/m² | - |
| 1777736270 | 15.56° C | 26% | 1019.1 hPa | 0 mm | - | 768 W/m² | - |
| 1777735966 | 15° C | 27% | 1019.1 hPa | 0 mm | - | 747 W/m² | - |
| 1777735664 | 14.44° C | 27% | 1019.1 hPa | 0 mm | - | 752 W/m² | - |
| 1777735361 | 14.44° C | 30% | 1019.1 hPa | 0 mm | - | 688 W/m² | - |
| 1777735059 | 13.89° C | 32% | 1019.5 hPa | 0 mm | - | 689 W/m² | - |
| 1777734756 | 13.33° C | 31% | 1019.5 hPa | 0 mm | - | 668 W/m² | - |
| 1777734453 | 13.33° C | 32% | 1019.5 hPa | 0 mm | - | 641 W/m² | - |
| 1777734149 | 12.78° C | 34% | 1019.5 hPa | 0 mm | - | 623 W/m² | - |
| 1777733846 | 12.78° C | 34% | 1019.8 hPa | 0 mm | - | 596 W/m² | - |
| 1777733543 | 12.22° C | 34% | 1019.8 hPa | 0 mm | - | 188 W/m² | - |
* Rain latest hour (hover to see other rain measurements)
** Current wind speed in m/s (hover to see current wind gust speed)